DW6157 Larvik NO current weather conditions

sailwx.info

Wind from 339

Air temperature 9.4° C
Dewpoint 7.1° C

Last reported at 2020-May-31 03:01 UTC.
Time now 2020-May-31 04:16 UTC

Location: N 59°05' E 010°08'.
View on Google Maps.

See reports from other nearby stations

  
Tides and Currents Weather Stations Pressure Air Temp Water Temp Dewpoint Dewpoint Depression Visibility Wind Speed Wind Dir Waves Ship Positions
date/time (UTC)wind fromknots sea level pressurealtimeterstation pressurevisibilityair tempwater tempwave heightnotes
2020-May-31 03:01 339 9.4
2020-May-31 02:46 342 9.4
2020-May-31 02:31 002 9.4
2020-May-31 02:15 002 9.4
2020-May-31 02:01 003 9.4
2020-May-31 01:46 324 9.4
2020-May-31 01:31 324 9.4
2020-May-31 01:16 220 9.4
2020-May-31 01:01 200 10.0
2020-May-31 00:45 200 10.0
2020-May-31 00:15 200 10.6
2020-May-31 00:00 200 10.6
2020-May-30 23:45 200 11.7
2020-May-30 23:30 200 12.2
2020-May-30 23:15 200 13.3
2020-May-30 23:00 200 13.3
2020-May-30 22:45 200 13.3
2020-May-30 22:30 200 12.8
2020-May-30 22:15 200 13.3
2020-May-30 22:00 200 13.3
2020-May-30 21:45 200 13.9
2020-May-30 21:30 188 14.4
2020-May-30 21:15 187 15.6
2020-May-30 21:00 185 16.1
2020-May-30 20:45 145 16.7
2020-May-30 20:30 145 17.2
2020-May-30 20:16 145 18.3
2020-May-30 20:02 145 18.3
2020-May-30 19:31 163 18.9
2020-May-30 19:18 135 19.4
2020-May-30 19:01 158 20.0
2020-May-30 18:46 098 0 gusting 4 21.1
2020-May-30 18:31 058 0 gusting 3 21.1
2020-May-30 18:17 048 21.7
2020-May-30 18:02 058 21.7
2020-May-30 17:46 079 2 gusting 5 21.7
2020-May-30 17:31 037 22.2
2020-May-30 17:16 355 22.2
2020-May-30 17:01 348 1 gusting 9 22.2
2020-May-30 16:46 070 3 gusting 8 22.2
2020-May-30 16:32 052 1 gusting 8 22.2
2020-May-30 16:19 034 2 gusting 8 22.2
2020-May-30 16:01 331 22.2
2020-May-30 15:46 060 2 gusting 9 22.2
2020-May-30 15:31 073 2 gusting 8 22.2
2020-May-30 15:16 018 0 gusting 7 22.2
2020-May-30 15:01 023 2 gusting 8 22.2
2020-May-30 14:45 322 1 gusting 12 22.2
2020-May-30 14:30 050 2 gusting 6 22.2
2020-May-30 14:16 034 4 gusting 8 22.2
2020-May-30 14:00 344 1 gusting 9 22.2
2020-May-30 13:45 068 1 gusting 7 22.2
2020-May-30 13:31 063 1 gusting 8 21.7
2020-May-30 13:15 053 1 gusting 8 21.1
2020-May-30 13:00 064 0 gusting 5 21.1
2020-May-30 12:45 015 1 gusting 7 21.7
2020-May-30 12:31 045 3 gusting 17 21.1
2020-May-30 12:15 051 0 gusting 9 21.1
2020-May-30 12:01 063 3 gusting 10 20.6
2020-May-30 11:45 049 3 gusting 8 21.1
2020-May-30 11:30 030 3 gusting 8 21.1
2020-May-30 11:15 062 1 gusting 8 20.6
2020-May-30 11:01 074 1 gusting 8 20.6
2020-May-30 10:45 353 3 gusting 10 20.0
2020-May-30 10:30 012 2 gusting 6 20.0
2020-May-30 10:15 062 1 gusting 6 20.0
2020-May-30 10:00 047 4 gusting 10 20.0
2020-May-30 09:45 316 5 gusting 10 20.0
2020-May-30 09:30 039 2 gusting 10 20.0
2020-May-30 09:15 029 4 gusting 11 19.4
2020-May-30 09:00 041 1 gusting 9 19.4
2020-May-30 08:45 041 5 gusting 9 19.4
2020-May-30 08:30 050 1 gusting 7 18.9
2020-May-30 08:15 058 3 gusting 8 18.9
2020-May-30 08:01 056 3 gusting 9 18.3
2020-May-30 07:46 003 1 gusting 5 18.3
2020-May-30 07:32 060 3 gusting 8 17.8
2020-May-30 07:16 060 1 gusting 8 17.8
2020-May-30 07:01 012 3 gusting 8 17.2
2020-May-30 06:46 042 1 gusting 7 16.7
2020-May-30 06:32 050 0 gusting 7 16.7
2020-May-30 06:16 002 1 gusting 6 16.7
2020-May-30 06:01 014 0 gusting 8 16.7
2020-May-30 05:46 053 1 gusting 7 16.7
2020-May-30 05:31 042 2 gusting 8 16.1
2020-May-30 05:16 066 1 gusting 6 16.1
2020-May-30 05:01 052 1 gusting 7 15.6
2020-May-30 04:47 335 0 gusting 5 15.0
2020-May-30 04:30 026 14.4
2020-May-30 04:16 043 13.9
2020-May-30 04:00 016 0 gusting 3 13.9
2020-May-30 03:45 004 12.8
2020-May-30 03:30 037 11.7
2020-May-30 03:15 027 11.1
2020-May-30 03:00 037 10.0
2020-May-30 02:45 291 8.9
2020-May-30 02:30 291 9.4
2020-May-30 02:15 291 10.0
2020-May-30 02:00 291 10.0
2020-May-30 01:45 291 10.6
2020-May-30 01:30 291 10.6
2020-May-30 01:16 291 11.1
2020-May-30 01:02 292 11.1
2020-May-30 00:46 283 10.6
2020-May-30 00:32 285 10.6
2020-May-30 00:16 285 10.6
2020-May-30 00:02 280 10.6
2020-May-29 23:46 280 11.1
2020-May-29 23:33 280 11.1
2020-May-29 23:16 278 11.1
2020-May-29 23:01 272 11.1
2020-May-29 22:46 272 11.1
2020-May-29 22:31 272 11.1
2020-May-29 22:16 272 11.1
2020-May-29 22:01 272 11.7
2020-May-29 21:46 272 11.7
2020-May-29 21:31 272 12.8
2020-May-29 21:17 272 13.3
2020-May-29 21:00 272 13.9
2020-May-29 20:46 272 15.0
2020-May-29 20:30 272 14.4
2020-May-29 20:15 272 14.4
2020-May-29 20:02 272 15.0
2020-May-29 19:46 272 15.6
2020-May-29 19:31 272 16.7
2020-May-29 19:16 272 17.2
2020-May-29 19:01 272 17.2
2020-May-29 18:45 303 17.8
2020-May-29 18:31 235 18.9
2020-May-29 18:15 265 19.4
2020-May-29 18:01 223 20.6
2020-May-29 17:46 268 21.1
2020-May-29 17:31 222 0 gusting 4 21.1
2020-May-29 17:16 210 0 gusting 4 21.7
2020-May-29 17:01 220 0 gusting 4 21.1
2020-May-29 16:45 216 1 gusting 5 21.1
2020-May-29 16:30 200 1 gusting 5 21.1
2020-May-29 16:16 249 20.6
2020-May-29 16:00 200 2 gusting 6 20.6
2020-May-29 15:45 205 1 gusting 9 20.6
2020-May-29 15:30 216 2 gusting 7 20.6
2020-May-29 15:15 205 3 gusting 9 20.0
2020-May-29 15:00 224 4 gusting 8 20.6
2020-May-29 14:45 196 5 gusting 9 20.6
2020-May-29 14:31 219 5 gusting 8 20.6
2020-May-29 14:15 205 5 gusting 10 20.0
2020-May-29 14:00 200 2 gusting 8 20.6
2020-May-29 13:45 205 2 gusting 7 20.0
2020-May-29 13:30 210 4 gusting 7 20.0
2020-May-29 13:15 210 3 gusting 7 20.0
2020-May-29 13:00 236 2 gusting 6 20.6
2020-May-29 12:45 196 4 gusting 8 20.0
2020-May-29 12:30 223 3 gusting 8 19.4
2020-May-29 12:15 193 3 gusting 7 20.0
2020-May-29 12:00 210 0 gusting 7 20.0
2020-May-29 11:45 222 2 gusting 7 20.0
2020-May-29 11:30 200 1 gusting 8 20.0
2020-May-29 11:15 224 1 gusting 7 20.0
2020-May-29 11:00 221 3 gusting 8 20.0
2020-May-29 10:45 210 4 gusting 8 20.6
2020-May-29 10:30 236 1 gusting 6 20.6
2020-May-29 10:15 216 2 gusting 6 20.6
2020-May-29 10:00 200 1 gusting 7 20.6
2020-May-29 09:45 210 2 gusting 8 21.1
2020-May-29 09:30 139 20.6
2020-May-29 09:17 205 0 gusting 3 20.0
2020-May-29 09:01 072 0 gusting 3 19.4
2020-May-29 08:49 151 21.7
2020-May-29 08:31 156 20.6
2020-May-29 08:16 165 18.9
2020-May-29 08:01 016 18.3
2020-May-29 07:45 066 17.2
2020-May-29 07:31 052 16.7
2020-May-29 07:15 351 16.7
2020-May-29 07:01 118 0 gusting 4 16.1
2020-May-29 06:46 037 15.6
2020-May-29 06:31 323 15.0
2020-May-29 06:16 049 14.4
2020-May-29 06:00 045 13.9
2020-May-29 05:45 023 13.3
2020-May-29 05:31 053 12.8
2020-May-29 05:15 027 12.2
2020-May-29 05:00 332 11.7
2020-May-29 04:45 323 10.6
2020-May-29 04:30 311 10.0
2020-May-29 04:15 301 9.4